sat.trackr.live / text

‹ back to catalog

STARLINK-2499

NORAD 48377 · 2021-038AA

PAYLOAD ACTIVE UNKNOWN

§ Identity

Operator
Country
US
Launch date
2021-05-04
Launch site
AFETR
Launch vehicle
Mass (kg)
RCS (m²)

Purposes: comms

External: N2YO · Heavens-Above · Gunter

§ Orbital elements

Epoch: 2026-09-19T10:43:22.808928Z

Period
94.01 min
Inclination
53.1623°
Eccentricity
0.0001506
Mean motion
15.31694687 rev/d
Perigee alt
469.7 km
Apogee alt
471.8 km
Semi-major
6,848.9 km
B*
-1.5475e-5
RAAN
166.1501°
Arg perigee
92.5654°
Mean anomaly
267.5520°
Rev number
29,691

§ Raw data

STARLINK-24991 48377U 21038AA  26262.44679177 -.00000845  00000+0 -15475-4 0  99902 48377  53.1623 166.1501 0001506  92.5654 267.5520 15.31694687296918

JSON: /api/v1/satellites/48377 · /tle

For live sub-satellite position, see the globe view (requires WebGL).

§ Visibility from observer

Set your observer location to see the next 7 days of passes ≥ 10°. The values pass through the URL so the page stays shareable.

No JS? Fill the form by hand. The geolocation button needs JavaScript.